[[{"header":{"parameterUnit":"m.s-1","parameterCategory":1,"la1":30.2991,"la2":30.254,"lo1":-89.0895,"lo2":-89.0444,"dy":0.0017,"dx":0.0017,"nx":28,"ny":28,"refTime":"2024-02-04T09:00:00:Z","depth":0,"parameterNumber":2,"parameterNumberName":"U-component_of_WINDS"},"data":[0,0,0,0,0,0,0,0,0,0,0,0,0,0,0,0,0,0,0,0,0,0,0,0,0,0,0,0,0,0,0,0,0,0,0,0,0,0,0,0,0,0,0,0,0,0,0,0,0,0,0,0,0,0,0,0,0,0,0.8193,0.8193,0,0.8188,0.8188,0.8188,0.8188,0.8188,0.8188,0.8188,0.8181,0.8181,0.818,0,0,0,0,0,0,0,0,0,0,0,0,0,0.82,0.82,0.8193,0.8193,0.8193,0.8188,0.8188,0.8188,0.8188,0.8188,0.8188,0.8188,0.8181,0.8181,0.818,0,0,0,0,0,0,0,0,0,0,0,0,0,0.8196,0.82,0.8193,0.8192,0.8192,0.8188,0.8188,0.8188,0.8188,0.8188,0.8188,0.8188,0.8181,0.8181,0.818,0.8176,0,0,0.8179,0.8179,0,0,0,0,0,0,0,0,0.8197,0.8196,0.8192,0.8192,0.8192,0.8189,0.8188,0.8184,0.8188,0.8189,0.8188,0.8188,0.8183,0.8183,0.8181,0.8176,0.8175,0.8179,0.8179,0.8179,0.8179,0,0,0,0,0,0,0,0.8197,0.8196,0.8191,0.8192,0.8192,0.8192,0.8191,0.8187,0.8186,0.8189,0.8189,0.8189,0.8183,0.8182,0.8181,0.8175,0.8179,0.8179,0.8178,0.8178,0.8167,0.8167,0,0,0,0,0,0,0.8198,0.8197,0.8191,0.8191,0.8195,0.8191,0.8191,0.819,0.8186,0.8185,0.8189,0.8189,0.8182,0.8182,0.8181,0.8176,0.8179,0.8178,0.8178,0.8167,0.8167,0.8167,0,0,0,0,0,0,0.8198,0.8197,0.8191,0.8194,0.8193,0.8191,0.819,0.8189,0.8188,0.8185,0.8185,0.8188,0.8182,0.8182,0.8178,0.8176,0.8178,0.8178,0.8167,0.8167,0.8167,0.8167,0,0,0,0,0,0,0.8198,0.8197,0.8196,0.8194,0.8193,0.8188,0.819,0.8189,0.8188,0.8188,0.8184,0.8184,0.8182,0.8178,0.8177,0.8176,0.8177,0.8167,0.8167,0.8167,0.8167,0.8167,0.8167,0,0,0,0,0,0.8198,0.8195,0.8196,0.8195,0.8191,0.8188,0.8187,0.8187,0.8188,0.8186,0.8185,0.8184,0.8177,0.8178,0.8177,0.8175,0.8167,0.8167,0.8167,0.8167,0.8167,0.8167,0,0,0,0,0,0,0.8195,0.8195,0.8195,0.8191,0.819,0.8188,0.8186,0.8186,0.8184,0.8184,0.8182,0.8182,0.8178,0.8176,0.8177,0.8171,0.8172,0.8172,0.8172,0.8172,0.8172,0.8172,0.8177,0,0,0,0,0,0.8195,0.8193,0.8192,0.8189,0.8188,0.8187,0.8186,0.8186,0.8184,0.8183,0.8181,0.8179,0.8176,0.8174,0.8171,0.8167,0.8166,0.8165,0.8165,0.8165,0.8165,0.8163,0.8163,0.8166,0.8166,0.8166,0,0,0.8192,0.8192,0.819,0.8188,0.8187,0.8185,0.8187,0.8184,0.8183,0.8182,0.8179,0.8178,0.8175,0.8171,0.8169,0.8169,0.8164,0.8165,0.8165,0.8164,0.8163,0.8162,0.8162,0.8166,0.8166,0.8166,0,0,0.8187,0.8187,0.8184,0.8184,0.8183,0.8182,0.8182,0.818,0.818,0.8177,0.8177,0.8175,0.817,0.8168,0.8167,0.8164,0.8163,0.8163,0.8161,0.816,0.816,0.8159,0.8158,0.8158,0.8162,0.8162,0.8162,0,0.8184,0.8182,0.8183,0.8181,0.818,0.8181,0.8179,0.8178,0.8175,0.8175,0.8175,0.8171,0.8169,0.8165,0.8165,0.8163,0.8163,0.8163,0.816,0.816,0.8159,0.8158,0.8158,0.8162,0.8162,0.8162,0.8162,0,0.8179,0.8177,0.8175,0.8174,0.8173,0.8171,0.8172,0.817,0.8171,0.8171,0.8168,0.8166,0.8164,0.8163,0.8163,0.816,0.816,0.816,0.8161,0.8159,0.8158,0.8158,0.8162,0.8162,0.8162,0.8162,0,0,0.817,0.8171,0.817,0.8171,0.817,0.8169,0.8167,0.8166,0.8165,0.8164,0.8162,0.8159,0.816,0.8159,0.8159,0.8157,0.8155,0.8158,0.8158,0.8158,0.8153,0.8152,0.8152,0.8156,0.8156,0.8155,0.8153,0,0.8165,0.8162,0.8164,0.8161,0.816,0.8162,0.816,0.816,0.816,0.8159,0.8159,0.8157,0.8158,0.8158,0.8157,0.8156,0.8154,0.8156,0.8154,0.8154,0.8154,0.8151,0.815,0.8148,0.8152,0.8152,0.8152,0,0.8158,0.8158,0.8155,0.8157,0.8156,0.8155,0.8155,0.8154,0.8154,0.8154,0.8153,0.8154,0.8152,0.8154,0.8152,0.8153,0.8152,0.8152,0.8152,0.8151,0.8152,0.815,0.8147,0.8146,0.8152,0.8152,0.8152,0,0.8152,0.8152,0.815,0.815,0.8152,0.8151,0.8151,0.8152,0.8151,0.8151,0.8151,0.815,0.8149,0.8148,0.8149,0.815,0.8147,0.8148,0.8147,0.8147,0.8145,0.8145,0.8142,0.8145,0.8146,0.8146,0.8146,0,0.8146,0.8144,0.8148,0.8147,0.8145,0.8148,0.8146,0.8146,0.8147,0.8146,0.8148,0.8147,0.8148,0.8147,0.8147,0.8146,0.8145,0.8146,0.8146,0.8145,0.8145,0.8144,0.8144,0.8145,0.8145,0.8145,0.8145,0,0.8139,0.8141,0.814,0.8142,0.8143,0.8141,0.8143,0.8142,0.8144,0.8143,0.8142,0.8144,0.8143,0.8144,0.8143,0.8143,0.8141,0.8142,0.8142,0.8142,0.814,0.814,0.8135,0.8135,0.8139,0.8139,0.8139,0,0.8134,0.8133,0.8136,0.8136,0.8137,0.8137,0.8137,0.814,0.814,0.8141,0.814,0.814,0.8139,0.8139,0.8139,0.8139,0.8139,0.8137,0.8139,0.8139,0.8139,0.8139,0.8139,0.8137,0.8137,0.8137,0.8137,0,0.8126,0.8128,0.8129,0.813,0.813,0.8131,0.8132,0.8132,0.8135,0.8135,0.8135,0.8135,0.8135,0.8135,0.8135,0.8135,0.8136,0.8137,0.8136,0.8135,0.8135,0.8136,0.8141,0.8136,0.8136,0.8136,0.8136,0.8136,0.812,0.812,0.8122,0.8123,0.8125,0.8126,0.8126,0.8128,0.8128,0.8129,0.813,0.813,0.8132,0.8132,0.8132,0.8132,0.8133,0.8132,0.8132,0.8132,0.8132,0.8136,0.8132,0.8132,0.8132,0.8132,0.8132,0,0.8113,0.8115,0.8116,0.8118,0.8119,0.8121,0.8123,0.8123,0.8123,0.8125,0.8125,0.8126,0.8126,0.8128,0.8128,0.8128,0.8129,0.8128,0.8128,0.8128,0.8131,0.8131,0.8128,0.8128,0.8128,0.8128,0.8128,0.8128,0.8109,0.8109,0.8111,0.8112,0.8114,0.8114,0.8115,0.8117,0.8118,0.8119,0.812,0.8121,0.8123,0.8124,0.8124,0.8125,0.8125,0.8124,0.8125,0.8127,0.8128,0.8128,0.8128,0.8124,0.8124,0.8122,0.8122,0.8122]},{"header":{"parameterUnit":"m.s-1","parameterCategory":1,"la1":30.2991,"la2":30.254,"lo1":-89.0895,"lo2":-89.0444,"dy":0.0017,"dx":0.0017,"nx":28,"ny":28,"refTime":"2024-02-04T09:00:00:Z","depth":0,"parameterNumber":3,"parameterNumberName":"V-component_of_WINDS"},"data":[0,0,0,0,0,0,0,0,0,0,0,0,0,0,0,0,0,0,0,0,0,0,0,0,0,0,0,0,0,0,0,0,0,0,0,0,0,0,0,0,0,0,0,0,0,0,0,0,0,0,0,0,0,0,0,0,0,0,-6.6579,-6.658,0,-6.6635,-6.6636,-6.6637,-6.6538,-6.6535,-6.6532,-6.6528,-6.6584,-6.6588,-6.6593,0,0,0,0,0,0,0,0,0,0,0,0,0,-6.6385,-6.6389,-6.6579,-6.658,-6.658,-6.6635,-6.6636,-6.6637,-6.6539,-6.6535,-6.6531,-6.6527,-6.6582,-6.6588,-6.6593,0,0,0,0,0,0,0,0,0,0,0,0,0,-6.6458,-6.639,-6.6579,-6.6538,-6.6535,-6.6635,-6.6636,-6.6637,-6.654,-6.6535,-6.653,-6.6525,-6.658,-6.6587,-6.6594,-6.6735,0,0,-6.6615,-6.6618,0,0,0,0,0,0,0,0,-6.6454,-6.6465,-6.6544,-6.6541,-6.6538,-6.6575,-6.6588,-6.667,-6.6541,-6.6538,-6.6528,-6.6523,-6.6585,-6.6591,-6.6612,-6.6738,-6.674,-6.6615,-6.6619,-6.6622,-6.6624,0,0,0,0,0,0,0,-6.6449,-6.6462,-6.6601,-6.6545,-6.6541,-6.6517,-6.6521,-6.6603,-6.6588,-6.6538,-6.6531,-6.6539,-6.6582,-6.6606,-6.6613,-6.6741,-6.6615,-6.6621,-6.6625,-6.6628,-6.6986,-6.6992,0,0,0,0,0,0,-6.6449,-6.6459,-6.6599,-6.6603,-6.6483,-6.6524,-6.653,-6.6568,-6.6587,-6.6585,-6.6543,-6.6534,-6.6596,-6.6605,-6.6614,-6.6782,-6.6622,-6.6629,-6.6633,-6.6981,-6.6988,-6.6993,0,0,0,0,0,0,-6.6446,-6.6463,-6.6597,-6.6529,-6.6544,-6.6533,-6.6577,-6.6572,-6.6595,-6.6591,-6.6588,-6.657,-6.6593,-6.6605,-6.6706,-6.6782,-6.6632,-6.6638,-6.6975,-6.6983,-6.6991,-6.7118,0,0,0,0,0,0,-6.644,-6.6462,-6.6516,-6.6531,-6.6548,-6.6689,-6.6581,-6.6576,-6.6608,-6.6596,-6.6616,-6.6614,-6.659,-6.6697,-6.6713,-6.6789,-6.6643,-6.6968,-6.6978,-6.6988,-6.7107,-6.713,-6.7149,0,0,0,0,0,-6.6434,-6.6549,-6.6519,-6.6537,-6.6616,-6.6694,-6.6703,-6.6674,-6.6614,-6.6668,-6.6666,-6.6613,-6.6771,-6.6708,-6.6726,-6.6805,-6.6963,-6.6975,-6.6987,-6.7098,-6.7125,-6.7148,0,0,0,0,0,0,-6.6542,-6.655,-6.6517,-6.6641,-6.6668,-6.6677,-6.6744,-6.6704,-6.6748,-6.6735,-6.6696,-6.6701,-6.6811,-6.6818,-6.6747,-6.6943,-6.6857,-6.6873,-6.6935,-6.6961,-6.6981,-6.6978,-6.6649,0,0,0,0,0,-6.6581,-6.6644,-6.6647,-6.6756,-6.6771,-6.6756,-6.6789,-6.6764,-6.6789,-6.68,-6.6805,-6.6831,-6.6887,-6.6924,-6.6975,-6.7107,-6.711,-6.7171,-6.7191,-6.7209,-6.7223,-6.7295,-6.7322,-6.7034,-6.7033,-6.7033,0,0,-6.666,-6.6672,-6.6715,-6.6778,-6.6796,-6.6862,-6.6766,-6.684,-6.6888,-6.6811,-6.6908,-6.6912,-6.6939,-6.7057,-6.7109,-6.7066,-6.7304,-6.7224,-6.7238,-6.7243,-6.731,-6.7337,-6.7362,-6.7042,-6.704,-6.7039,0,0,-6.6839,-6.6855,-6.6948,-6.6968,-6.6997,-6.6986,-6.7008,-6.7024,-6.7025,-6.7122,-6.7065,-6.7122,-6.7218,-6.724,-6.7264,-6.7453,-6.7407,-6.7471,-6.758,-6.765,-6.7673,-6.7693,-6.7761,-6.7786,-6.7485,-6.7485,-6.7486,0,-6.6935,-6.7033,-6.7,-6.7079,-6.7109,-6.7043,-6.7136,-6.7157,-6.7201,-6.7223,-6.7174,-6.7294,-6.7307,-6.743,-6.7476,-6.7498,-6.7522,-6.7468,-6.7672,-6.7692,-6.771,-6.7775,-6.78,-6.7493,-6.7492,-6.7491,-6.7491,0,-6.7149,-6.7218,-6.729,-6.7335,-6.7372,-6.7458,-6.7438,-6.748,-6.7452,-6.7447,-6.7546,-6.756,-6.7613,-6.764,-6.7613,-6.776,-6.7732,-6.7679,-6.7591,-6.7746,-6.7806,-6.783,-6.7504,-6.7501,-6.7499,-6.7497,0,0,-6.7397,-6.7425,-6.7452,-6.7472,-6.7499,-6.7552,-6.7634,-6.7687,-6.7724,-6.7757,-6.7825,-6.7909,-6.786,-6.7887,-6.7862,-6.7923,-6.8073,-6.7862,-6.7862,-6.7901,-6.8236,-6.8277,-6.8306,-6.8043,-6.8047,-6.8051,-6.8234,0,-6.7576,-6.772,-6.7694,-6.7834,-6.7898,-6.7836,-6.7909,-6.7933,-6.793,-6.7983,-6.7979,-6.804,-6.797,-6.7986,-6.8045,-6.8043,-6.814,-6.8029,-6.8106,-6.8109,-6.8102,-6.8337,-6.838,-6.8553,-6.8257,-6.8261,-6.8264,0,-6.7804,-6.7847,-6.7994,-6.8012,-6.8038,-6.8103,-6.815,-6.8202,-6.8228,-6.8222,-6.8253,-6.8217,-6.8299,-6.8211,-6.8323,-6.8249,-6.8278,-6.8282,-6.8288,-6.8295,-6.8196,-6.8351,-6.8607,-6.8633,-6.8301,-6.8298,-6.8295,0,-6.7972,-6.8066,-6.8166,-6.8185,-6.8209,-6.8256,-6.8268,-6.829,-6.8324,-6.8364,-6.8386,-6.8435,-6.8463,-6.8502,-6.8479,-6.8417,-6.8596,-6.8506,-6.8593,-6.8594,-6.8634,-6.8632,-6.8899,-6.8653,-6.8652,-6.8652,-6.8651,0,-6.8174,-6.8267,-6.8242,-6.8304,-6.8405,-6.8374,-6.8475,-6.848,-6.85,-6.8561,-6.8511,-6.8569,-6.8536,-6.8592,-6.8575,-6.8671,-6.8684,-6.8681,-6.8675,-6.8686,-6.8686,-6.8705,-6.8693,-6.8659,-6.8657,-6.8656,-6.8655,0,-6.8379,-6.8366,-6.8471,-6.8486,-6.8491,-6.8566,-6.8578,-6.8635,-6.8629,-6.8707,-6.8724,-6.8714,-6.8777,-6.8759,-6.8827,-6.8815,-6.8938,-6.8917,-6.893,-6.8925,-6.9013,-6.9006,-6.9302,-6.934,-6.9069,-6.9071,-6.9074,0,-6.8509,-6.8579,-6.8602,-6.864,-6.8656,-6.8718,-6.8753,-6.8724,-6.8763,-6.8799,-6.8852,-6.8911,-6.8957,-6.9061,-6.9059,-6.9111,-6.9091,-6.9192,-6.9099,-6.9107,-6.9094,-6.909,-6.9097,-6.921,-6.9214,-6.9216,-6.9218,0,-6.8743,-6.8733,-6.8786,-6.8837,-6.8881,-6.8919,-6.8953,-6.8987,-6.8961,-6.9006,-6.9071,-6.9107,-6.9177,-6.9236,-6.9284,-6.9295,-6.9253,-6.9248,-6.9271,-6.9282,-6.9287,-6.9287,-6.8981,-6.9241,-6.9239,-6.9237,-6.9236,-6.9235,-6.8915,-6.8975,-6.9,-6.9061,-6.9084,-6.9117,-6.9172,-6.9173,-6.9227,-6.9283,-6.9263,-6.9338,-6.9362,-6.9422,-6.944,-6.9497,-6.9459,-6.9492,-6.9501,-6.951,-6.9521,-6.9278,-6.9506,-6.9505,-6.9504,-6.9504,-6.9503,0,-6.9146,-6.916,-6.9216,-6.9266,-6.9314,-6.9271,-6.9306,-6.9349,-6.9416,-6.9443,-6.949,-6.9565,-6.9622,-6.9626,-6.968,-6.9725,-6.9707,-6.974,-6.9737,-6.974,-6.9552,-6.9527,-6.9754,-6.9754,-6.9754,-6.9754,-6.9754,-6.9754,-6.9272,-6.9372,-6.9366,-6.9476,-6.9488,-6.9562,-6.9586,-6.9616,-6.9638,-6.9725,-6.9773,-6.9775,-6.9793,-6.9848,-6.9899,-6.9898,-6.9921,-6.9962,-6.9954,-6.9778,-6.9753,-6.973,-6.9706,-6.9967,-6.9967,-7.0137,-7.0139,-7.014]}]]